This is the latest recevied weather packets stored in our database for station/object IU2EVW-3. If no packets are shown the sender has not sent any weather packets the latest 10 day(s).
| Time | Temp. | Humidity | Pressure | Rain* | Wind** | Luminosity | Snow |
|---|---|---|---|---|---|---|---|
| 1777828822 | 21.67° C | 29% | 1016.4 hPa | - | - | - | - |
| 1777827620 | 22.22° C | 28% | 1016.4 hPa | - | - | - | - |
| 1777826419 | 22.78° C | 31% | 1016.4 hPa | - | - | - | - |
| 1777825218 | 23.33° C | 31% | 1016.5 hPa | - | - | - | - |
| 1777824017 | 22.78° C | 31% | 1016.7 hPa | - | - | - | - |
| 1777822816 | 24.44° C | 29% | 1016.8 hPa | - | - | - | - |
| 1777821615 | 24.44° C | 29% | 1016.9 hPa | - | - | - | - |
| 1777820413 | 25° C | 29% | 1017.1 hPa | - | - | - | - |
| 1777819212 | 23.89° C | 29% | 1017.4 hPa | - | - | - | - |
| 1777818011 | 25° C | 28% | 1017.5 hPa | - | - | - | - |
| 1777816810 | 24.44° C | 28% | 1017.9 hPa | - | - | - | - |
| 1777815609 | 25° C | 27% | 1018 hPa | - | - | - | - |
| 1777814407 | 25° C | 26% | 1018.3 hPa | - | - | - | - |
| 1777813206 | 23.33° C | 27% | 1018.7 hPa | - | - | - | - |
| 1777812005 | 22.78° C | 29% | 1018.9 hPa | - | - | - | - |
| 1777810804 | 22.22° C | 30% | 1019 hPa | - | - | - | - |
| 1777809603 | 22.78° C | 28% | 1018.9 hPa | - | - | - | - |
| 1777808402 | 23.33° C | 28% | 1018.9 hPa | - | - | - | - |
| 1777807200 | 23.33° C | 26% | 1019 hPa | - | - | - | - |
| 1777805999 | 22.78° C | 27% | 1019.1 hPa | - | - | - | - |
| 1777804798 | 23.89° C | 27% | 1019.1 hPa | - | - | - | - |
| 1777803597 | 22.78° C | 30% | 1019.2 hPa | - | - | - | - |
| 1777802396 | 20.56° C | 32% | 1019.3 hPa | - | - | - | - |
| 1777801194 | 20.56° C | 31% | 1019.5 hPa | - | - | - | - |
| 1777799993 | 20° C | 30% | 1019.7 hPa | - | - | - | - |
* Rain since midnight (hover to see other rain measurements)
** Current wind speed in m/s (hover to see current wind gust speed)